Location: Unspecified
(0.0000°N, 0.0000°E)
Time: 18:21:45
(UTC+02:00)

Iridium 12 - Visible Passes

Search period start: 29 May 2015 00:00
Search period end: 08 June 2015 00:00
Orbit: 776 x 779 km, 86.4° (Epoch: 28 May)

Date Brightness Start Highest point End Pass type
(mag) Time Alt. Az. Time Alt. Az. Time Alt. Az.
29 May 6.3 05:40:58 46° NNE 05:40:58 46° NNE 05:44:40 10° N visible
30 May 7.6 05:08:08 23° NE 05:08:08 23° NE 05:10:35 10° NNE visible
30 May 7.5 06:48:38 12° WNW 06:48:38 12° WNW 06:49:15 10° WNW visible
31 May 7.1 06:15:45 20° NW 06:15:45 20° NW 06:17:38 10° NNW visible
01 Jun 7.2 05:42:50 23° N 05:42:50 23° N 05:44:46 10° N visible
02 Jun 7.9 05:09:53 17° NNE 05:09:53 17° NNE 05:11:08 10° NNE visible
04 Jun 8.0 05:44:23 11° NNW 05:44:23 11° NNW 05:44:34 10° NNW visible
05 Jun 8.2 05:11:21 10° N 05:11:21 10° N 05:11:23 10° N visible
